QPF
0.02 0.01 0.01 0.02 0.06 0.11 0.13 0.17 0.17 0.12 0.11 0.14 0.12 0.05 0.05 0.06 0.06 0.05 0.04 0.05 0.06 0.06 0.07 0.05 0.05 0.05 0.05 0.06 0.04 0.04 0.04 0.04 0.04 0.05 0.05 0.03 0.02 0.02 0.02 0.01 0.01 0.01 0.01
0.01 0.01 0.01 0.01 0.04 0.10 0.13 0.18 0.16 0.12 0.11 0.09 0.09 0.07 0.08 0.07 0.07 0.05 0.05 0.05 0.06 0.06 0.05 0.06 0.04 0.05 0.05 0.05 0.04 0.04 0.05 0.04 0.03 0.05 0.05 0.04 0.04 0.02 0.01 0.01 0.02 0.01 0.01
0.01 0.01 0.01 0.01 0.03 0.07 0.09 0.13 0.14 0.14 0.12 0.11 0.09 0.09 0.09 0.10 0.08 0.06 0.05 0.04 0.05 0.05 0.05 0.04 0.04 0.05 0.03 0.04 0.05 0.05 0.06 0.05 0.03 0.03 0.04 0.05 0.05 0.05 0.03 0.01 0.00 0.01 0.01
0.00 0.01 0.01 0.01 0.01 0.04 0.05 0.07 0.08 0.10 0.11 0.13 0.11 0.09 0.06 0.06 0.04 0.04 0.04 0.05 0.05 0.06 0.05 0.04 0.04 0.04 0.03 0.05 0.04 0.04 0.05 0.05 0.04 0.03 0.03 0.03 0.03 0.04 0.04 0.02 0.01 0.01 0.02
0.00 0.00 0.00 0.01 0.01 0.01 0.02 0.04 0.06 0.07 0.09 0.11 0.12 0.11 0.11 0.08 0.07 0.06 0.08 0.08 0.07 0.06 0.05 0.05 0.05 0.04 0.03 0.03 0.05 0.05 0.04 0.03 0.04 0.03 0.02 0.02 0.02 0.02 0.02 0.04 0.02 0.01 0.00
0.00 0.00 0.00 0.01 0.01 0.02 0.02 0.04 0.06 0.08 0.09 0.10 0.10 0.10 0.11 0.11 0.10 0.10 0.08 0.06 0.07 0.07 0.06 0.05 0.07 0.05 0.03 0.04 0.06 0.06 0.04 0.04 0.04 0.04 0.03 0.03 0.02 0.02 0.01 0.02 0.02 0.01 0.00
0.00 0.00 0.00 0.01 0.01 0.01 0.02 0.04 0.05 0.07 0.08 0.08 0.08 0.10 0.12 0.12 0.12 0.13 0.09 0.06 0.05 0.05 0.07 0.07 0.07 0.06 0.05 0.04 0.04 0.04 0.04 0.04 0.05 0.04 0.03 0.03 0.02 0.01 0.00 0.00 0.01 0.01 0.01
0.00 0.00 0.01 0.01 0.01 0.01 0.01 0.02 0.02 0.05 0.07 0.07 0.07 0.08 0.09 0.15 0.14 0.13 0.11 0.07 0.05 0.05 0.05 0.07 0.07 0.07 0.06 0.05 0.04 0.03 0.03 0.03 0.04 0.03 0.03 0.03 0.02 0.01 0.00 0.00 0.01 0.01 0.01
0.00 0.00 0.00 0.00 0.01 0.02 0.02 0.02 0.02 0.04 0.07 0.07 0.08 0.08 0.08 0.11 0.12 0.12 0.10 0.06 0.06 0.06 0.06 0.06 0.07 0.06 0.05 0.04 0.04 0.04 0.04 0.04 0.04 0.04 0.04 0.03 0.02 0.01 0.00 0.01 0.01 0.01 0.01
0.00 0.00 0.00 0.00 0.01 0.02 0.02 0.03 0.03 0.03 0.04 0.06 0.09 0.10 0.12 0.11 0.10 0.10 0.09 0.07 0.07 0.07 0.07 0.06 0.06 0.05 0.05 0.04 0.04 0.04 0.04 0.03 0.03 0.04 0.04 0.04 0.03 0.01 0.01 0.01 0.02 0.02 0.01
0.00 0.00 0.00 0.00 0.01 0.01 0.02 0.03 0.03 0.03 0.03 0.04 0.08 0.13 0.16 0.13 0.09 0.07 0.06 0.06 0.07 0.07 0.08 0.06 0.05 0.05 0.04 0.04 0.04 0.03 0.03 0.02 0.02 0.03 0.04 0.04 0.03 0.02 0.02 0.02 0.02 0.02 0.02
0.00 0.00 0.01 0.00 0.01 0.01 0.02 0.02 0.02 0.02 0.02 0.03 0.06 0.11 0.14 0.11 0.07 0.05 0.05 0.05 0.06 0.07 0.06 0.06 0.05 0.04 0.04 0.04 0.04 0.04 0.03 0.02 0.02 0.02 0.03 0.03 0.03 0.03 0.02 0.02 0.02 0.02 0.02
0.00 0.01 0.00 0.00 0.00 0.01 0.02 0.01 0.02 0.02 0.02 0.03 0.03 0.04 0.08 0.09 0.07 0.05 0.05 0.07 0.08 0.08 0.07 0.06 0.06 0.07 0.07 0.06 0.05 0.05 0.05 0.05 0.04 0.04 0.03 0.04 0.04 0.03 0.03 0.03 0.03 0.02 0.02
0.00 0.01 0.00 0.00 0.00 0.01 0.01 0.01 0.01 0.01 0.01 0.02 0.02 0.02 0.04 0.07 0.07 0.06 0.05 0.06 0.10 0.10 0.11 0.11 0.10 0.10 0.11 0.10 0.10 0.09 0.08 0.07 0.07 0.07 0.06 0.06 0.05 0.05 0.05 0.03 0.03 0.03 0.03
0.01 0.01 0.01 0.01 0.01 0.01 0.01 0.01 0.01 0.01 0.01 0.01 0.02 0.03 0.03 0.05 0.06 0.07 0.07 0.07 0.07 0.07 0.08 0.10 0.11 0.12 0.12 0.10 0.10 0.09 0.07 0.07 0.07 0.07 0.07 0.06 0.06 0.06 0.05 0.03 0.04 0.04 0.04
0.00 0.01 0.01 0.01 0.01 0.01 0.01 0.01 0.01 0.02 0.02 0.02 0.02 0.02 0.03 0.04 0.06 0.06 0.06 0.07 0.08 0.08 0.08 0.08 0.08 0.08 0.07 0.08 0.08 0.08 0.07 0.07 0.07 0.08 0.08 0.07 0.07 0.06 0.04 0.04 0.03 0.03 0.03
0.01 0.02 0.04 0.03 0.02 0.01 0.01 0.01 0.01 0.02 0.04 0.04 0.04 0.03 0.04 0.05 0.06 0.05 0.05 0.07 0.09 0.09 0.08 0.08 0.08 0.08 0.08 0.08 0.07 0.08 0.08 0.07 0.07 0.07 0.06 0.05 0.05 0.05 0.05 0.04 0.04 0.03 0.02
0.01 0.01 0.01 0.02 0.01 0.01 0.01 0.01 0.02 0.02 0.03 0.05 0.05 0.04 0.04 0.06 0.07 0.06 0.06 0.07 0.08 0.09 0.08 0.07 0.09 0.11 0.11 0.10 0.09 0.08 0.08 0.07 0.06 0.06 0.05 0.05 0.05 0.06 0.06 0.07 0.06 0.05 0.04
0.01 0.01 0.01 0.01 0.01 0.01 0.01 0.01 0.01 0.02 0.02 0.04 0.06 0.05 0.05 0.05 0.06 0.06 0.08 0.08 0.09 0.10 0.12 0.12 0.12 0.12 0.14 0.14 0.12 0.10 0.09 0.08 0.08 0.08 0.08 0.08 0.08 0.09 0.08 0.07 0.08 0.08 0.06
0.02 0.02 0.02 0.02 0.02 0.02 0.02 0.02 0.03 0.03 0.03 0.04 0.05 0.05 0.06 0.06 0.06 0.07 0.09 0.11 0.13 0.13 0.14 0.16 0.16 0.17 0.17 0.18 0.16 0.14 0.11 0.10 0.09 0.09 0.08 0.08 0.07 0.07 0.06 0.05 0.06 0.05 0.05
0.02 0.03 0.02 0.02 0.02 0.02 0.02 0.02 0.01 0.02 0.04 0.05 0.05 0.06 0.06 0.08 0.09 0.10 0.10 0.12 0.15 0.15 0.16 0.17 0.18 0.20 0.21 0.20 0.18 0.16 0.14 0.14 0.12 0.11 0.09 0.09 0.09 0.08 0.07 0.06 0.05 0.04 0.03
0.01 0.02 0.02 0.02 0.02 0.02 0.02 0.02 0.02 0.03 0.04 0.06 0.08 0.08 0.07 0.08 0.09 0.09 0.11 0.11 0.12 0.13 0.16 0.20 0.21 0.20 0.20 0.19 0.17 0.16 0.15 0.15 0.13 0.11 0.08 0.08 0.08 0.06 0.05 0.04 0.04 0.04 0.04
0.01 0.01 0.01 0.02 0.01 0.01 0.02 0.02 0.03 0.04 0.04 0.06 0.09 0.11 0.13 0.14 0.14 0.14 0.13 0.12 0.11 0.11 0.11 0.13 0.15 0.16 0.15 0.15 0.14 0.11 0.10 0.08 0.06 0.06 0.07 0.06 0.06 0.05 0.04 0.05 0.04 0.04 0.04
0.01 0.02 0.02 0.02 0.02 0.02 0.02 0.02 0.04 0.05 0.05 0.07 0.09 0.12 0.14 0.17 0.19 0.20 0.18 0.14 0.12 0.13 0.14 0.15 0.16 0.17 0.15 0.14 0.12 0.10 0.09 0.08 0.06 0.06 0.06 0.05 0.05 0.04 0.04 0.04 0.04 0.03 0.03
0.02 0.02 0.02 0.02 0.02 0.02 0.02 0.03 0.04 0.06 0.07 0.08 0.11 0.12 0.14 0.16 0.16 0.15 0.15 0.15 0.13 0.12 0.11 0.12 0.12 0.11 0.10 0.11 0.11 0.09 0.08 0.07 0.07 0.07 0.07 0.06 0.05 0.05 0.04 0.05 0.05 0.05 0.04
0.01 0.01 0.01 0.02 0.01 0.01 0.02 0.03 0.05 0.05 0.06 0.08 0.09 0.09 0.10 0.10 0.10 0.10 0.11 0.12 0.10 0.09 0.07 0.07 0.06 0.06 0.06 0.07 0.07 0.06 0.06 0.06 0.06 0.06 0.05 0.05 0.04 0.03 0.03 0.04 0.04 0.04 0.03
MSLP
1009.51 1009.71 1009.88 1010.05 1010.26 1010.56 1010.99 1011.57 1012.28 1013.10 1013.96 1014.79 1015.54 1016.16 1016.61 1016.91 1017.07 1017.15 1017.18 1017.22 1017.27 1017.38 1017.52 1017.70 1017.89 1018.09 1018.30 1018.51 1018.73 1018.98 1019.25 1019.54 1019.84 1020.12 1020.36 1020.54 1020.64 1020.67 1020.64 1020.56 1020.49 1020.45 1020.46
1009.61 1009.82 1009.99 1010.15 1010.36 1010.66 1011.09 1011.67 1012.41 1013.24 1014.13 1014.99 1015.76 1016.38 1016.82 1017.09 1017.22 1017.25 1017.24 1017.23 1017.27 1017.36 1017.51 1017.70 1017.90 1018.11 1018.32 1018.52 1018.72 1018.94 1019.18 1019.45 1019.73 1020.01 1020.26 1020.45 1020.58 1020.63 1020.61 1020.53 1020.43 1020.33 1020.29
1009.62 1009.85 1010.05 1010.24 1010.46 1010.77 1011.20 1011.78 1012.52 1013.35 1014.24 1015.10 1015.86 1016.46 1016.89 1017.13 1017.23 1017.23 1017.19 1017.16 1017.19 1017.29 1017.45 1017.66 1017.89 1018.12 1018.32 1018.51 1018.69 1018.87 1019.07 1019.29 1019.55 1019.81 1020.07 1020.29 1020.46 1020.55 1020.55 1020.50 1020.40 1020.29 1020.19
1009.51 1009.78 1010.03 1010.27 1010.52 1010.85 1011.29 1011.86 1012.57 1013.39 1014.24 1015.07 1015.80 1016.38 1016.78 1017.00 1017.07 1017.06 1017.01 1016.99 1017.03 1017.14 1017.33 1017.57 1017.83 1018.08 1018.30 1018.48 1018.64 1018.79 1018.95 1019.14 1019.36 1019.61 1019.87 1020.12 1020.32 1020.46 1020.52 1020.51 1020.43 1020.32 1020.19
1009.30 1009.63 1009.94 1010.23 1010.52 1010.87 1011.31 1011.87 1012.54 1013.31 1014.11 1014.89 1015.58 1016.12 1016.49 1016.69 1016.76 1016.74 1016.70 1016.70 1016.76 1016.90 1017.13 1017.41 1017.71 1017.99 1018.24 1018.43 1018.59 1018.73 1018.86 1019.03 1019.22 1019.46 1019.72 1019.98 1020.21 1020.40 1020.51 1020.53 1020.49 1020.38 1020.24
1009.01 1009.39 1009.76 1010.11 1010.45 1010.82 1011.26 1011.78 1012.41 1013.11 1013.85 1014.56 1015.19 1015.69 1016.04 1016.24 1016.31 1016.31 1016.29 1016.32 1016.41 1016.60 1016.86 1017.18 1017.53 1017.85 1018.13 1018.36 1018.54 1018.68 1018.81 1018.96 1019.14 1019.36 1019.61 1019.88 1020.13 1020.34 1020.49 1020.55 1020.54 1020.45 1020.30
1008.69 1009.11 1009.53 1009.93 1010.31 1010.70 1011.13 1011.62 1012.19 1012.82 1013.48 1014.12 1014.69 1015.16 1015.49 1015.69 1015.78 1015.82 1015.84 1015.90 1016.04 1016.26 1016.56 1016.92 1017.30 1017.67 1017.99 1018.26 1018.47 1018.64 1018.78 1018.93 1019.10 1019.31 1019.54 1019.80 1020.05 1020.26 1020.42 1020.51 1020.51 1020.44 1020.29
1008.37 1008.83 1009.29 1009.73 1010.14 1010.54 1010.96 1011.41 1011.92 1012.48 1013.06 1013.64 1014.16 1014.59 1014.92 1015.14 1015.27 1015.35 1015.42 1015.53 1015.70 1015.95 1016.28 1016.67 1017.08 1017.47 1017.84 1018.14 1018.39 1018.59 1018.76 1018.92 1019.09 1019.28 1019.49 1019.71 1019.93 1020.13 1020.28 1020.36 1020.37 1020.31 1020.18
1008.12 1008.60 1009.09 1009.56 1009.99 1010.40 1010.80 1011.22 1011.68 1012.17 1012.68 1013.20 1013.68 1014.09 1014.43 1014.67 1014.85 1014.99 1015.12 1015.27 1015.48 1015.76 1016.10 1016.49 1016.90 1017.31 1017.69 1018.03 1018.30 1018.54 1018.73 1018.90 1019.07 1019.24 1019.41 1019.59 1019.77 1019.92 1020.04 1020.10 1020.11 1020.06 1019.95
1007.96 1008.45 1008.96 1009.46 1009.91 1010.32 1010.72 1011.11 1011.52 1011.96 1012.42 1012.88 1013.33 1013.74 1014.09 1014.38 1014.61 1014.81 1015.00 1015.20 1015.44 1015.72 1016.06 1016.43 1016.83 1017.22 1017.60 1017.94 1018.23 1018.48 1018.69 1018.87 1019.03 1019.18 1019.31 1019.44 1019.56 1019.66 1019.72 1019.76 1019.76 1019.72 1019.65
1007.93 1008.43 1008.95 1009.46 1009.93 1010.35 1010.74 1011.12 1011.51 1011.90 1012.32 1012.75 1013.18 1013.58 1013.96 1014.29 1014.58 1014.84 1015.09 1015.33 1015.59 1015.88 1016.19 1016.54 1016.89 1017.24 1017.59 1017.91 1018.19 1018.45 1018.66 1018.84 1019.00 1019.12 1019.22 1019.30 1019.36 1019.39 1019.41 1019.42 1019.41 1019.39 1019.36
1008.01 1008.51 1009.04 1009.56 1010.04 1010.48 1010.88 1011.26 1011.63 1012.00 1012.39 1012.80 1013.21 1013.62 1014.01 1014.38 1014.73 1015.05 1015.35 1015.63 1015.91 1016.20 1016.49 1016.78 1017.08 1017.38 1017.67 1017.95 1018.22 1018.46 1018.67 1018.85 1019.00 1019.11 1019.18 1019.22 1019.23 1019.22 1019.20 1019.18 1019.17 1019.17 1019.18
1008.18 1008.68 1009.20 1009.72 1010.22 1010.67 1011.08 1011.47 1011.84 1012.20 1012.58 1012.97 1013.37 1013.78 1014.19 1014.60 1014.99 1015.36 1015.71 1016.03 1016.34 1016.62 1016.88 1017.13 1017.38 1017.61 1017.85 1018.08 1018.31 1018.54 1018.74 1018.93 1019.08 1019.19 1019.25 1019.27 1019.26 1019.22 1019.18 1019.15 1019.14 1019.16 1019.22
1008.40 1008.88 1009.39 1009.90 1010.39 1010.86 1011.29 1011.69 1012.07 1012.44 1012.80 1013.18 1013.58 1013.99 1014.41 1014.84 1015.27 1015.69 1016.08 1016.45 1016.77 1017.06 1017.32 1017.54 1017.73 1017.92 1018.10 1018.30 1018.49 1018.70 1018.91 1019.10 1019.27 1019.40 1019.48 1019.51 1019.50 1019.46 1019.42 1019.38 1019.38 1019.43 1019.52
1008.62 1009.06 1009.53 1010.02 1010.50 1010.97 1011.42 1011.84 1012.23 1012.61 1012.98 1013.36 1013.75 1014.15 1014.59 1015.03 1015.49 1015.95 1016.39 1016.80 1017.16 1017.47 1017.73 1017.94 1018.12 1018.27 1018.42 1018.58 1018.76 1018.96 1019.18 1019.39 1019.60 1019.76 1019.88 1019.95 1019.97 1019.95 1019.92 1019.90 1019.91 1019.97 1020.07
1008.80 1009.18 1009.60 1010.04 1010.50 1010.97 1011.42 1011.86 1012.28 1012.67 1013.05 1013.44 1013.83 1014.24 1014.67 1015.13 1015.62 1016.11 1016.60 1017.05 1017.46 1017.81 1018.10 1018.33 1018.50 1018.65 1018.79 1018.94 1019.11 1019.32 1019.56 1019.81 1020.06 1020.28 1020.46 1020.58 1020.65 1020.67 1020.66 1020.65 1020.67 1020.72 1020.82
1008.93 1009.23 1009.58 1009.96 1010.39 1010.83 1011.29 1011.74 1012.18 1012.60 1013.01 1013.41 1013.81 1014.23 1014.68 1015.16 1015.67 1016.20 1016.73 1017.24 1017.71 1018.11 1018.44 1018.70 1018.90 1019.07 1019.22 1019.37 1019.56 1019.79 1020.06 1020.35 1020.65 1020.93 1021.17 1021.35 1021.47 1021.53 1021.55 1021.55 1021.56 1021.59 1021.66
1009.02 1009.24 1009.50 1009.82 1010.19 1010.61 1011.06 1011.53 1012.00 1012.45 1012.89 1013.32 1013.75 1014.20 1014.67 1015.18 1015.72 1016.29 1016.87 1017.43 1017.96 1018.42 1018.81 1019.12 1019.36 1019.56 1019.73 1019.91 1020.12 1020.36 1020.66 1020.98 1021.33 1021.66 1021.95 1022.19 1022.35 1022.45 1022.49 1022.48 1022.47 1022.46 1022.47
1009.12 1009.25 1009.43 1009.68 1010.00 1010.40 1010.84 1011.32 1011.82 1012.32 1012.80 1013.28 1013.75 1014.24 1014.74 1015.29 1015.87 1016.48 1017.11 1017.73 1018.31 1018.83 1019.28 1019.64 1019.93 1020.16 1020.36 1020.56 1020.78 1021.04 1021.35 1021.69 1022.06 1022.41 1022.74 1023.01 1023.20 1023.31 1023.35 1023.33 1023.28 1023.21 1023.15
1009.27 1009.35 1009.46 1009.65 1009.93 1010.29 1010.74 1011.23 1011.76 1012.31 1012.85 1013.38 1013.91 1014.45 1015.01 1015.60 1016.22 1016.87 1017.54 1018.20 1018.83 1019.40 1019.90 1020.31 1020.63 1020.90 1021.12 1021.33 1021.55 1021.81 1022.10 1022.44 1022.79 1023.15 1023.47 1023.74 1023.94 1024.05 1024.07 1024.02 1023.91 1023.78 1023.64
1009.55 1009.59 1009.66 1009.82 1010.06 1010.41 1010.85 1011.36 1011.93 1012.51 1013.11 1013.71 1014.30 1014.90 1015.51 1016.15 1016.81 1017.50 1018.20 1018.89 1019.55 1020.15 1020.68 1021.12 1021.47 1021.76 1021.99 1022.19 1022.40 1022.62 1022.88 1023.18 1023.49 1023.81 1024.10 1024.34 1024.51 1024.59 1024.59 1024.50 1024.35 1024.15 1023.94
1009.97 1010.01 1010.08 1010.22 1010.45 1010.79 1011.24 1011.76 1012.36 1012.99 1013.64 1014.29 1014.94 1015.59 1016.25 1016.92 1017.62 1018.33 1019.05 1019.75 1020.43 1021.04 1021.59 1022.04 1022.40 1022.68 1022.90 1023.09 1023.26 1023.43 1023.63 1023.86 1024.11 1024.36 1024.59 1024.78 1024.90 1024.94 1024.90 1024.78 1024.59 1024.34 1024.07
1010.52 1010.61 1010.70 1010.86 1011.10 1011.45 1011.90 1012.44 1013.05 1013.71 1014.39 1015.08 1015.77 1016.46 1017.15 1017.84 1018.55 1019.27 1019.99 1020.69 1021.36 1021.98 1022.51 1022.96 1023.32 1023.59 1023.79 1023.94 1024.07 1024.18 1024.31 1024.45 1024.61 1024.77 1024.93 1025.05 1025.12 1025.12 1025.05 1024.90 1024.68 1024.42 1024.11
1011.19 1011.34 1011.50 1011.69 1011.96 1012.33 1012.78 1013.32 1013.94 1014.60 1015.29 1015.99 1016.69 1017.39 1018.09 1018.79 1019.49 1020.20 1020.90 1021.58 1022.23 1022.83 1023.36 1023.79 1024.14 1024.39 1024.57 1024.68 1024.75 1024.80 1024.85 1024.91 1024.98 1025.05 1025.12 1025.18 1025.20 1025.17 1025.08 1024.92 1024.71 1024.44 1024.14
1011.91 1012.15 1012.39 1012.64 1012.95 1013.33 1013.78 1014.32 1014.91 1015.55 1016.22 1016.90 1017.59 1018.27 1018.94 1019.62 1020.29 1020.97 1021.64 1022.30 1022.92 1023.50 1024.01 1024.43 1024.76 1025.01 1025.16 1025.25 1025.28 1025.27 1025.25 1025.23 1025.22 1025.21 1025.22 1025.21 1025.19 1025.15 1025.05 1024.92 1024.73 1024.49 1024.21
1012.63 1012.97 1013.29 1013.61 1013.95 1014.35 1014.80 1015.30 1015.86 1016.46 1017.07 1017.70 1018.34 1018.97 1019.60 1020.23 1020.87 1021.50 1022.14 1022.76 1023.36 1023.91 1024.41 1024.83 1025.16 1025.40 1025.55 1025.62 1025.63 1025.59 1025.52 1025.44 1025.37 1025.31 1025.26 1025.22 1025.18 1025.13 1025.06 1024.96 1024.81 1024.62 1024.38
Thickness
5801 5796 5789 5783 5777 5771 5764 5759 5753 5748 5743 5740 5737 5735 5734 5735 5735 5736 5735 5734 5735 5735 5734 5737 5734 5734 5735 5734 5734 5733 5731 5730 5731 5729 5727 5729 5731 5730 5728 5727 5727 5726 5723
5797 5792 5786 5781 5775 5769 5764 5759 5754 5749 5745 5741 5739 5737 5735 5735 5735 5735 5734 5734 5735 5735 5736 5735 5735 5734 5733 5732 5732 5731 5732 5732 5731 5728 5724 5721 5724 5726 5731 5729 5727 5727 5726
5796 5790 5785 5780 5774 5769 5764 5760 5755 5749 5745 5742 5738 5735 5732 5732 5733 5733 5733 5734 5734 5735 5735 5734 5735 5734 5735 5734 5731 5731 5729 5729 5731 5732 5728 5722 5719 5725 5729 5729 5729 5728 5727
5799 5792 5786 5779 5774 5770 5765 5760 5754 5749 5745 5741 5739 5735 5733 5732 5734 5734 5735 5734 5734 5735 5735 5734 5734 5733 5736 5733 5733 5734 5733 5730 5729 5730 5730 5730 5729 5724 5723 5728 5730 5729 5727
5800 5793 5787 5781 5775 5770 5765 5759 5754 5749 5746 5743 5740 5737 5735 5735 5734 5735 5734 5734 5735 5734 5734 5734 5733 5733 5734 5734 5733 5732 5732 5733 5732 5732 5731 5729 5728 5729 5725 5722 5726 5729 5731
5798 5792 5787 5780 5774 5770 5765 5760 5753 5749 5746 5743 5740 5737 5736 5735 5734 5733 5734 5734 5735 5735 5734 5734 5733 5733 5734 5733 5732 5731 5731 5732 5732 5732 5732 5730 5728 5727 5728 5725 5724 5726 5731
5795 5788 5783 5777 5773 5768 5764 5759 5753 5748 5746 5743 5741 5739 5737 5736 5734 5734 5734 5735 5736 5736 5734 5735 5733 5733 5733 5732 5731 5730 5731 5730 5729 5728 5731 5732 5732 5733 5731 5728 5727 5726 5730
5793 5787 5782 5777 5772 5768 5764 5760 5754 5749 5746 5744 5741 5740 5738 5737 5737 5736 5737 5736 5737 5737 5736 5734 5732 5732 5732 5732 5730 5732 5730 5729 5728 5729 5729 5729 5732 5733 5732 5729 5727 5723 5726
5790 5786 5782 5777 5773 5769 5765 5761 5755 5751 5748 5746 5743 5740 5738 5738 5737 5736 5736 5737 5736 5736 5734 5733 5732 5731 5731 5730 5729 5730 5728 5728 5727 5728 5727 5727 5730 5730 5730 5730 5728 5722 5719
5788 5784 5780 5777 5774 5770 5766 5762 5757 5752 5749 5747 5744 5741 5738 5737 5736 5736 5735 5735 5734 5734 5733 5732 5731 5730 5729 5728 5727 5727 5727 5725 5725 5725 5725 5724 5728 5727 5727 5726 5726 5724 5721
5785 5781 5778 5775 5771 5768 5765 5760 5757 5753 5749 5746 5744 5741 5738 5736 5735 5734 5734 5733 5733 5732 5731 5731 5730 5728 5727 5726 5725 5726 5725 5723 5722 5722 5722 5721 5721 5723 5724 5723 5722 5721 5719
5784 5779 5775 5771 5767 5765 5763 5759 5756 5753 5750 5747 5743 5740 5738 5737 5735 5734 5733 5733 5731 5730 5730 5729 5727 5727 5726 5725 5723 5722 5722 5721 5720 5719 5718 5718 5718 5716 5717 5718 5718 5717 5716
5779 5776 5771 5767 5764 5761 5759 5758 5755 5752 5750 5746 5742 5739 5737 5735 5734 5733 5732 5731 5729 5728 5727 5726 5724 5724 5723 5722 5721 5720 5718 5718 5717 5716 5714 5714 5713 5711 5713 5711 5713 5713 5713
5774 5771 5767 5763 5760 5758 5756 5754 5752 5751 5748 5745 5741 5738 5736 5734 5733 5731 5731 5729 5728 5726 5724 5723 5722 5721 5720 5719 5718 5716 5714 5713 5713 5712 5711 5710 5709 5707 5706 5707 5706 5706 5706
5768 5765 5762 5759 5756 5754 5752 5751 5749 5747 5745 5742 5739 5737 5735 5733 5731 5729 5728 5727 5726 5724 5722 5720 5718 5717 5716 5715 5713 5712 5710 5708 5707 5706 5705 5704 5702 5701 5700 5701 5700 5700 5698
5762 5761 5758 5755 5752 5750 5749 5748 5746 5744 5742 5739 5737 5735 5733 5731 5729 5727 5725 5723 5722 5720 5718 5716 5714 5712 5711 5709 5706 5706 5705 5703 5701 5699 5698 5698 5695 5693 5690 5689 5689 5688 5689
5757 5755 5753 5751 5749 5748 5746 5745 5744 5742 5738 5735 5734 5733 5730 5728 5726 5724 5721 5719 5717 5715 5713 5711 5709 5707 5704 5701 5700 5698 5699 5697 5695 5693 5691 5692 5691 5687 5686 5683 5679 5678 5676
5750 5749 5748 5747 5745 5745 5744 5742 5741 5739 5736 5732 5731 5730 5727 5725 5722 5719 5717 5714 5712 5710 5707 5705 5703 5700 5697 5694 5692 5691 5690 5689 5687 5685 5684 5682 5681 5679 5677 5676 5673 5670 5667
5744 5742 5743 5743 5741 5740 5739 5738 5736 5734 5731 5728 5727 5726 5724 5721 5717 5714 5711 5709 5706 5703 5700 5698 5696 5693 5689 5686 5685 5683 5683 5680 5678 5675 5673 5672 5670 5667 5666 5666 5663 5659 5656
5736 5735 5736 5735 5733 5733 5733 5731 5729 5728 5725 5724 5722 5720 5718 5715 5712 5708 5705 5702 5700 5696 5692 5688 5686 5684 5680 5677 5676 5675 5676 5672 5668 5665 5661 5657 5657 5654 5654 5654 5652 5648 5646
5727 5727 5727 5725 5724 5725 5725 5723 5722 5720 5719 5718 5715 5712 5710 5707 5704 5700 5697 5694 5691 5687 5683 5678 5675 5672 5669 5667 5666 5665 5666 5663 5658 5654 5649 5644 5642 5641 5640 5639 5637 5634 5633
5718 5717 5716 5714 5715 5715 5715 5713 5711 5712 5711 5709 5706 5703 5701 5699 5695 5691 5686 5683 5681 5677 5673 5668 5664 5661 5658 5655 5654 5653 5651 5650 5646 5641 5636 5630 5628 5627 5625 5624 5621 5620 5620
5708 5708 5706 5704 5704 5704 5704 5702 5701 5701 5700 5698 5695 5693 5690 5687 5684 5680 5676 5673 5671 5668 5664 5659 5654 5650 5646 5642 5640 5639 5637 5635 5631 5625 5620 5616 5614 5614 5611 5608 5607 5608 5608
5697 5697 5695 5693 5692 5692 5692 5691 5691 5691 5689 5686 5683 5680 5678 5674 5670 5667 5665 5663 5660 5657 5653 5649 5643 5639 5634 5631 5630 5627 5624 5620 5617 5612 5606 5603 5601 5600 5597 5597 5596 5594 5590
5685 5685 5683 5681 5680 5680 5680 5681 5680 5680 5677 5674 5670 5667 5664 5660 5653 5648 5644 5644 5641 5643 5641 5637 5633 5628 5622 5615 5614 5616 5613 5610 5606 5603 5599 5597 5594 5591 5587 5585 5581 5579 5577
5674 5673 5672 5670 5669 5668 5668 5668 5668 5668 5666 5662 5658 5654 5651 5645 5640 5635 5627 5620 5621 5621 5620 5618 5616 5609 5604 5601 5600 5598 5596 5593 5591 5592 5589 5584 5580 5577 5573 5571 5567 5563 5559